GFSSE_925_thetae_021.txt.gz
Theta_e
326 325 322 324 322 320 320 321 321 321 320 320 321 325 329 328 327 326 324 322 319 320 323 327 328 328 331 332 332 335 336 338 343 344 345 344 344 344 345 343 342 344 345
327 331 323 325 322 319 320 321 322 323 322 321 322 328 332 332 331 331 330 329 328 324 327 328 329 328 331 333 333 332 335 335 339 342 344 344 345 344 344 343 340 345 346
330 330 325 324 320 320 321 323 324 325 324 324 323 325 330 334 333 333 333 332 331 331 331 331 331 329 329 335 336 333 334 335 336 341 342 344 344 342 341 342 341 342 336
335 332 326 322 320 321 322 323 325 326 327 328 329 333 334 334 334 332 332 333 333 333 333 333 333 333 330 332 337 338 333 334 336 339 341 342 343 342 342 345 341 337 335
335 329 324 322 322 323 324 324 325 327 329 333 338 338 337 337 336 334 333 332 333 334 333 332 332 333 333 330 335 336 335 335 334 338 340 342 343 342 341 343 343 341 343
332 328 325 324 324 325 325 323 323 325 328 336 339 339 337 337 336 334 334 333 333 333 332 332 332 334 334 333 331 336 335 336 333 330 339 341 343 341 341 341 343 343 340
329 328 326 327 326 326 325 323 323 323 322 331 339 338 337 336 335 334 333 332 333 332 331 331 332 333 335 333 331 335 334 333 333 327 336 340 342 341 340 341 343 338 332
326 328 329 329 329 327 325 324 324 321 322 330 329 327 328 329 332 333 332 331 331 331 331 332 332 332 332 333 333 334 331 333 335 331 334 339 340 341 341 340 342 338 336
328 329 330 331 328 325 324 324 322 322 322 322 323 324 324 325 327 329 329 330 330 330 331 331 331 332 331 331 333 332 329 331 335 331 331 337 339 340 340 340 341 338 334
328 330 332 329 326 324 324 323 322 322 322 323 324 325 325 326 326 329 329 329 329 328 328 329 329 329 329 331 331 329 327 332 335 333 327 336 339 339 340 339 339 335 332
331 333 330 326 325 324 323 323 324 324 324 323 324 326 326 327 327 325 324 323 327 329 330 330 329 330 330 331 332 331 330 332 332 333 328 334 339 339 339 341 339 335 335
327 327 326 326 325 325 324 325 326 328 329 329 329 329 327 327 326 325 324 325 327 328 330 330 330 331 331 332 331 332 331 330 331 330 327 331 338 339 341 342 332 337 335
325 325 327 326 325 324 325 327 329 329 328 328 328 329 328 327 325 326 324 323 325 325 325 325 327 330 330 330 330 329 329 329 331 330 327 333 338 341 341 342 339 338 337
321 322 323 325 324 325 327 329 328 326 326 327 327 327 327 326 326 326 326 324 324 325 325 325 326 329 330 329 330 328 325 326 330 331 326 335 337 340 340 341 339 337 333
320 323 324 324 325 327 329 328 328 328 328 328 328 329 328 327 327 327 327 326 324 324 324 325 325 327 328 329 328 327 322 324 329 331 326 334 338 338 340 340 339 338 336
321 323 323 327 327 328 327 327 328 329 329 329 329 330 329 328 327 326 327 326 324 324 324 324 325 326 328 326 328 327 322 325 329 329 328 334 338 337 340 339 339 338 337
322 323 327 328 328 329 327 328 329 329 329 329 330 330 330 329 327 326 326 325 324 324 325 324 325 326 327 327 326 325 324 325 328 329 329 333 336 337 339 339 338 337 336
324 327 328 328 329 328 328 329 328 329 330 330 330 329 328 329 328 327 326 325 325 326 325 324 324 326 326 326 326 327 326 324 330 329 331 334 336 338 337 338 337 337 334
326 327 328 328 328 328 329 328 329 330 330 330 329 328 328 327 328 326 325 324 325 326 326 324 324 325 326 326 326 327 326 329 331 330 332 334 335 337 337 338 337 335 334
327 328 328 328 328 328 328 329 330 331 331 329 328 328 329 327 327 324 321 323 327 326 326 323 324 325 325 326 326 327 328 330 330 331 332 334 335 336 336 337 335 335 334
327 328 328 327 328 328 329 330 331 331 331 330 330 330 329 328 327 322 321 326 327 326 324 323 325 326 325 326 327 328 328 328 329 332 330 333 334 335 335 336 334 334 334
327 327 327 328 328 330 332 330 331 331 329 329 330 330 329 329 328 326 324 327 327 325 324 323 324 325 325 326 326 326 325 327 329 331 334 336 336 335 334 334 334 334 331
326 327 328 328 329 332 330 330 330 329 329 329 329 327 328 329 328 328 325 326 327 325 324 323 324 325 326 326 327 325 325 325 329 330 331 334 334 334 333 333 334 333 331
326 328 328 329 331 331 330 331 329 328 328 329 327 328 327 328 328 327 327 327 325 325 324 323 324 326 327 327 327 328 327 329 327 331 331 332 333 333 333 333 333 332 331
326 328 328 330 332 331 331 330 327 327 327 326 327 328 328 327 328 327 326 325 324 325 325 325 326 326 326 327 328 328 329 329 330 329 330 329 331 331 332 331 330 330 328
326 328 329 331 332 331 331 330 327 325 325 325 327 328 328 329 328 327 327 326 325 325 324 324 326 326 326 327 328 327 328 329 327 327 329 328 328 329 330 330 329 329 329

GFSSE_925_thetae_024.txt.gz
Theta_e
324 319 321 323 319 317 318 319 319 319 318 317 316 317 317 318 319 320 321 321 320 318 320 324 327 327 328 330 331 331 332 335 341 344 344 343 343 343 344 344 345 344 344
329 324 320 324 321 318 319 320 320 320 320 320 319 320 323 325 326 326 325 323 323 323 326 329 329 329 328 331 332 331 332 333 334 341 343 344 343 344 343 343 343 344 344
329 329 320 324 323 319 319 321 321 321 322 322 322 324 329 332 332 333 332 332 331 330 330 331 332 331 330 329 333 334 331 333 331 336 342 343 344 344 343 343 343 344 345
329 332 322 324 322 319 320 321 322 323 324 325 327 330 332 333 334 334 333 333 332 332 332 333 333 334 333 330 331 335 335 332 333 332 340 342 343 343 343 342 345 345 344
330 332 326 325 321 319 320 322 323 325 326 328 332 335 336 336 336 335 332 332 332 332 332 334 332 333 334 334 330 335 336 334 333 333 335 341 342 343 342 341 343 344 341
333 334 328 325 321 320 321 323 323 324 325 328 336 337 338 336 335 332 333 333 333 332 333 333 332 332 334 335 334 331 336 336 335 333 328 339 342 342 342 341 342 341 340
335 334 329 325 322 321 322 324 325 324 324 326 335 338 338 337 335 332 333 334 333 332 333 332 331 331 331 334 335 331 333 336 335 333 326 337 340 342 341 341 342 341 339
330 331 328 325 323 323 324 326 325 324 324 324 326 335 335 332 333 333 333 333 333 332 331 332 332 332 332 332 333 332 333 335 335 334 329 332 339 342 340 340 341 342 341
329 328 327 326 325 326 327 327 326 324 324 323 323 327 326 325 327 328 330 330 330 330 331 332 332 332 332 331 332 332 333 334 334 333 331 328 338 340 340 339 340 342 339
329 327 327 327 327 328 328 328 326 325 325 323 323 325 325 325 327 327 328 329 330 329 330 328 329 330 329 330 330 330 332 333 333 334 331 327 334 339 340 339 339 341 340
330 328 328 329 330 330 329 327 326 325 324 323 325 326 326 326 326 326 324 324 326 327 329 330 330 329 329 329 330 331 333 331 331 333 332 327 330 338 339 341 339 340 338
330 330 330 331 332 329 327 325 326 325 326 330 328 325 327 327 327 327 325 324 323 328 328 329 331 331 330 330 330 331 332 331 330 331 331 330 328 338 341 342 339 340 336
328 328 330 333 331 327 325 324 324 324 327 328 329 328 328 329 328 326 325 325 323 324 325 325 325 325 330 330 330 331 331 331 328 330 331 329 327 336 341 341 341 339 335
325 326 331 332 328 325 325 325 324 324 325 327 327 327 328 329 328 326 325 325 324 323 325 325 324 325 329 330 329 330 330 329 327 328 330 328 329 336 340 340 342 336 335
321 323 326 326 326 325 325 325 324 326 326 327 327 327 327 327 327 326 326 326 326 324 323 323 324 325 327 329 330 329 329 326 324 328 330 328 330 336 340 340 342 340 336
319 320 323 325 325 325 326 325 325 327 328 328 328 329 329 329 328 327 326 326 326 324 324 324 323 325 326 328 329 328 327 325 322 327 329 328 331 336 338 340 340 339 338
318 319 321 324 324 327 326 326 327 328 328 328 329 329 330 329 329 328 326 326 326 324 324 324 323 325 326 328 327 327 327 325 323 327 329 327 331 335 337 340 340 340 339
319 320 323 324 327 327 327 327 328 328 328 329 329 330 329 328 328 328 327 325 325 324 325 325 323 324 326 327 327 326 325 324 324 325 329 328 332 336 336 337 339 339 337
320 321 324 327 327 328 327 328 328 328 329 329 330 329 328 328 327 328 327 325 325 324 325 325 323 324 325 326 326 326 326 326 325 330 329 330 334 335 336 336 336 337 337
321 323 327 327 328 327 328 327 328 330 330 330 329 328 328 329 327 327 326 324 323 324 326 325 323 324 325 325 325 326 326 326 329 329 330 331 333 334 335 335 335 336 334
324 327 327 328 327 328 327 329 329 330 330 330 330 329 329 329 328 326 324 322 324 326 325 325 323 324 325 325 326 327 329 328 328 329 332 333 333 334 334 335 335 335 335
325 327 327 327 328 327 329 330 330 330 329 329 329 329 329 328 328 327 323 321 326 326 325 323 324 325 325 326 325 324 327 327 329 329 332 331 333 333 333 335 334 335 335
325 327 327 327 327 329 330 329 329 327 327 328 328 328 327 328 328 328 327 325 326 326 324 323 324 324 325 326 326 325 327 328 328 329 328 329 330 332 333 333 333 334 334
326 326 327 327 329 330 329 330 328 326 326 327 327 326 327 326 327 327 326 325 326 325 324 323 323 324 325 325 326 326 326 327 329 331 329 330 330 331 333 334 334 333 332
326 327 327 328 331 330 330 330 327 325 325 325 326 326 328 328 327 327 327 326 325 324 323 323 323 325 326 325 327 327 327 328 327 328 332 330 331 331 332 329 332 332 332
326 327 328 329 331 330 330 329 326 324 325 326 327 328 327 328 328 327 326 325 324 324 324 324 325 325 326 326 327 327 328 329 328 329 329 329 329 329 331 332 331 331 331

GFSSE_925_thetae_027.txt.gz
Theta_e
327 322 321 320 318 315 316 317 318 317 317 316 315 314 314 316 318 319 319 319 319 319 322 328 328 328 328 329 331 324 328 336 341 344 345 344 343 344 344 344 345 347 344
329 320 321 321 320 315 316 318 318 318 318 317 317 317 317 318 319 321 322 321 321 322 326 329 331 330 329 329 331 331 327 327 333 341 343 343 343 342 344 344 345 347 344
329 321 320 321 323 316 316 318 319 319 319 319 319 320 322 323 327 329 327 328 326 327 331 332 332 333 331 329 331 333 332 331 325 331 341 346 347 343 343 344 343 346 343
330 324 321 320 324 318 317 319 320 320 320 321 321 323 326 329 333 334 334 334 333 332 331 332 333 334 334 334 330 333 336 332 331 325 338 345 346 345 344 343 343 346 343
330 327 328 321 324 321 318 319 320 321 321 322 323 327 331 332 334 333 335 334 332 331 330 330 332 335 335 335 334 331 335 336 333 329 331 342 346 345 344 344 344 345 343
331 330 330 324 325 322 319 320 321 321 322 325 329 334 335 336 336 335 336 335 334 333 332 331 335 334 332 333 336 334 333 335 336 333 330 336 343 345 343 343 344 345 343
332 328 333 325 325 323 320 320 322 323 324 326 327 334 337 337 337 337 336 335 334 334 333 332 334 332 332 332 333 336 333 334 335 335 333 330 341 342 343 342 341 342 341
332 329 332 327 325 323 321 321 323 324 325 326 326 332 334 336 335 335 335 334 334 334 334 333 333 332 331 330 332 333 334 333 333 335 335 330 335 340 342 342 340 341 341
333 330 332 330 326 324 322 322 324 326 326 326 327 329 332 329 329 334 332 331 331 332 332 332 332 333 332 331 333 333 333 333 332 333 335 334 329 338 341 341 340 340 340
333 333 332 333 339 339 336 324 326 327 326 326 327 329 329 327 328 326 327 327 329 330 330 331 331 331 330 329 329 330 333 334 333 332 333 334 325 334 339 342 339 339 341
334 333 334 337 339 340 339 338 329 329 328 328 332 333 328 331 330 330 330 326 327 329 328 329 330 330 330 329 330 331 331 331 333 333 332 334 328 328 339 341 339 339 340
333 333 334 333 336 338 339 339 340 338 336 337 335 334 333 331 331 329 328 326 325 327 328 328 329 331 330 331 329 331 329 330 332 332 330 333 330 327 339 341 339 338 340
331 332 331 331 335 337 338 337 336 334 333 331 329 330 330 330 331 331 330 329 328 327 327 327 327 328 328 330 330 330 330 331 332 331 330 331 330 326 337 340 342 340 340
329 331 332 332 332 333 335 330 327 324 325 327 326 327 329 331 331 330 329 328 327 327 326 327 327 327 328 330 330 330 330 330 332 331 330 330 329 326 334 340 341 341 339
327 328 330 331 332 334 330 326 324 325 325 327 325 326 327 329 330 330 329 328 327 327 327 326 326 327 328 330 330 330 330 330 331 330 329 331 329 327 333 340 341 341 339
325 325 326 328 332 331 326 324 325 324 324 326 327 328 328 329 329 329 329 328 328 328 327 326 326 326 328 329 330 330 330 330 330 328 328 332 329 327 334 338 341 341 338
324 323 323 328 330 326 325 325 325 323 326 327 328 328 328 329 329 329 330 329 328 326 326 326 326 326 328 329 329 329 329 330 327 326 329 332 331 329 333 336 340 341 338
323 323 320 324 326 325 325 326 325 325 327 328 328 329 329 329 329 329 330 329 328 326 325 326 327 326 327 328 329 329 329 328 327 327 330 333 332 334 335 336 339 340 340
322 322 321 324 327 325 326 326 326 327 327 329 329 330 330 330 328 328 329 328 327 327 326 327 327 326 327 328 329 328 328 328 328 329 332 333 331 336 338 337 336 338 338
324 320 320 324 326 327 328 326 327 327 329 329 330 331 330 330 329 329 327 328 326 327 327 326 327 326 327 328 328 327 329 329 329 331 331 330 331 336 336 337 336 336 338
325 327 327 328 329 328 329 330 330 331 332 332 331 330 330 331 330 328 328 326 326 326 327 327 327 326 327 327 328 327 328 328 329 332 332 333 332 333 336 335 336 334 336
327 328 329 330 328 328 327 330 331 332 332 330 330 329 330 330 330 328 327 323 325 327 326 326 326 326 328 328 328 327 329 330 330 331 330 332 333 334 335 335 334 336 331
328 328 330 330 327 327 327 330 329 328 328 330 330 330 329 327 329 327 327 324 326 327 327 326 326 327 327 328 326 328 328 331 330 331 329 331 333 332 334 336 334 336 332
328 329 330 329 328 330 330 330 331 330 330 329 329 328 329 327 328 328 327 328 327 327 327 326 326 327 327 328 328 327 329 330 332 332 330 331 330 331 332 334 335 335 334
328 329 329 329 331 331 330 331 330 329 329 328 328 329 329 329 327 328 328 328 328 327 326 326 326 327 326 328 328 330 331 331 331 333 333 332 330 331 333 334 333 333 333
328 328 329 331 332 331 331 329 328 328 328 329 330 331 330 328 328 329 327 328 327 326 326 326 326 325 325 326 328 327 331 331 331 331 332 332 331 330 331 328 329 330 331

GFSSE_925_thetae_030.txt.gz
Theta_e
332 337 317 318 317 314 314 316 316 317 316 315 314 314 314 315 316 317 317 319 322 325 327 328 327 327 328 329 330 324 328 339 342 345 346 344 344 345 344 345 345 348 344
333 337 319 319 319 315 314 316 317 318 317 317 316 316 315 316 318 319 320 321 322 325 330 330 331 331 330 329 332 331 327 327 335 341 344 344 344 344 344 344 344 348 342
332 336 326 321 320 318 314 316 318 318 318 318 318 319 319 319 319 321 321 322 322 329 331 332 333 333 333 331 330 333 333 330 328 331 341 346 347 343 344 344 344 347 342
332 336 337 322 321 321 314 316 318 319 319 319 320 321 324 325 330 331 331 331 331 331 332 332 333 334 335 335 332 331 336 334 330 326 332 341 347 346 343 344 344 345 343
333 335 339 323 321 323 315 316 319 319 320 320 322 324 326 329 331 333 335 336 335 333 332 331 332 333 336 336 335 333 333 337 335 329 323 334 343 346 345 343 344 343 343
334 335 338 326 320 324 319 317 319 320 321 322 324 325 328 333 334 333 336 337 336 334 333 333 332 334 337 334 334 336 333 334 337 333 326 328 339 344 345 344 343 345 344
334 333 338 330 322 324 323 318 319 320 321 323 324 325 328 333 335 338 337 337 336 335 335 334 333 334 335 334 334 334 336 333 330 332 332 328 328 341 345 346 344 343 343
333 334 338 335 323 323 324 320 319 321 322 323 324 326 327 331 336 336 337 336 336 335 335 335 334 333 332 332 333 332 334 334 332 331 333 332 327 335 342 343 344 341 342
334 335 338 341 329 323 325 323 320 321 323 324 325 327 328 330 336 335 334 335 333 332 333 333 333 333 333 333 333 334 334 334 333 332 333 333 331 326 338 342 342 340 341
335 335 335 340 340 340 339 328 323 322 325 327 328 329 329 333 336 333 331 328 329 331 331 331 332 332 332 332 330 332 333 334 332 333 333 332 333 330 333 340 342 340 340
333 335 334 337 338 340 339 339 331 327 329 331 331 330 330 334 332 333 331 330 329 329 330 329 329 330 331 329 330 331 332 330 330 332 333 332 332 329 331 340 342 339 339
333 333 334 337 338 339 337 338 343 339 338 336 336 337 336 334 333 332 331 330 329 327 329 327 329 330 330 331 331 330 329 329 329 331 333 333 331 331 333 339 341 340 339
331 333 333 338 339 339 337 339 340 339 337 337 338 336 334 333 332 332 332 332 332 331 329 328 328 328 327 329 332 330 330 327 327 330 332 331 330 332 334 337 341 341 338
330 331 334 335 340 341 338 338 338 336 335 334 332 333 334 334 333 333 332 332 331 330 329 329 327 328 328 328 330 330 330 329 328 329 331 331 328 331 330 336 340 341 338
330 331 334 336 340 342 341 338 336 333 330 330 330 331 333 332 332 333 332 332 331 329 329 329 327 327 328 328 328 330 330 329 328 331 331 330 329 329 326 335 340 341 340
331 331 333 336 340 341 341 338 335 333 330 331 329 331 333 333 332 333 332 332 331 330 330 330 327 327 327 328 329 330 329 330 330 331 331 331 330 329 327 327 339 341 341
332 332 333 336 339 341 339 337 333 331 331 329 330 333 334 334 333 333 332 332 331 331 331 331 328 328 328 328 329 330 330 330 330 330 329 327 332 330 325 330 337 341 340
332 331 332 333 337 339 336 334 331 331 331 330 332 333 334 334 334 333 332 332 330 331 331 331 328 328 328 329 329 329 330 330 330 329 326 327 332 330 332 333 336 340 341
332 332 331 331 335 337 335 333 333 333 331 331 333 333 333 334 334 333 332 331 333 330 330 329 328 328 328 329 329 329 330 329 328 325 326 330 333 331 335 338 335 338 341
331 331 331 331 333 335 334 333 332 331 330 332 333 333 334 334 333 332 332 332 331 329 330 329 328 329 328 328 328 329 329 327 326 327 331 333 334 334 337 339 339 338 338
330 331 331 332 334 333 333 332 331 330 331 333 333 334 334 333 333 331 332 331 330 330 329 328 328 329 328 329 329 329 329 329 330 332 332 333 335 336 339 338 339 340 337
331 332 332 333 335 333 332 331 330 331 333 333 333 333 333 333 332 333 331 331 329 328 328 328 328 328 328 329 328 328 329 331 330 332 332 334 336 337 338 338 339 337 331
332 333 333 334 335 333 333 332 334 334 332 332 333 333 333 333 332 332 331 330 326 328 328 329 329 328 329 329 329 329 330 327 327 332 332 333 335 337 337 338 337 336 335
333 333 334 334 334 334 333 333 333 331 331 331 331 332 332 332 331 331 331 330 329 329 329 329 328 328 329 329 329 329 329 327 327 334 332 333 335 336 336 339 337 335 334
332 333 334 334 333 334 334 333 333 331 332 332 331 332 333 333 331 331 330 330 329 330 330 328 328 329 329 331 329 330 329 331 331 333 333 334 334 335 334 337 335 334 334
332 333 333 333 334 334 335 335 333 333 332 332 332 333 333 332 332 331 330 330 330 330 329 328 328 329 330 331 331 331 330 332 333 333 336 333 334 332 333 334 333 333 333

GFSSE_925_thetae_033.txt.gz
Theta_e
335 344 316 316 314 312 312 313 314 315 315 314 314 313 313 313 314 315 320 325 326 326 327 328 328 328 328 329 330 330 327 337 342 345 344 344 344 343 344 346 343 349 342
334 345 317 317 315 313 313 314 316 317 316 316 315 315 315 316 316 319 321 323 326 328 329 330 331 331 331 330 331 332 330 328 334 340 344 344 343 343 344 346 344 349 345
334 345 323 318 317 315 313 315 317 318 317 317 317 318 319 319 319 320 321 326 329 331 331 331 332 333 334 333 331 332 334 332 330 328 338 345 347 345 343 343 344 347 344
334 344 336 320 318 317 314 315 318 319 318 318 319 320 322 323 325 327 329 330 333 334 333 333 333 333 335 335 335 332 333 338 334 329 325 335 343 347 343 342 343 345 345
334 342 339 325 320 319 315 315 318 319 319 319 320 322 324 325 329 333 335 336 336 336 334 334 333 333 334 337 336 336 333 334 339 334 324 323 332 344 345 343 342 344 345
333 337 341 333 321 321 320 315 317 319 320 320 321 323 325 327 329 331 335 336 336 337 335 335 334 333 334 337 335 335 335 334 333 334 328 323 326 340 342 343 342 345 344
334 334 341 336 323 321 322 317 316 319 320 321 322 325 328 331 331 334 338 339 338 337 336 336 336 335 334 335 335 335 335 335 333 330 331 330 328 329 338 343 342 343 344
334 334 337 335 331 321 323 321 317 319 320 322 323 325 327 327 331 338 339 338 338 336 337 335 335 334 335 334 334 335 335 334 335 333 333 333 332 328 335 340 342 343 343
334 335 335 345 337 327 322 324 320 319 320 322 323 325 326 326 329 338 338 337 336 334 332 332 333 334 335 334 334 335 335 334 333 334 332 332 332 331 327 329 341 342 341
336 335 335 339 345 344 339 329 325 321 321 322 325 325 327 329 329 329 329 330 329 331 332 331 331 332 333 333 333 334 333 335 333 332 333 335 334 332 330 326 342 341 340
334 335 336 335 339 342 339 341 336 329 323 325 329 329 331 335 335 337 337 334 332 331 330 331 330 329 329 330 330 330 331 330 331 331 331 333 335 332 331 326 340 341 339
333 335 335 336 337 339 338 339 345 340 338 337 337 337 340 340 336 334 334 333 331 329 328 328 325 325 329 327 328 328 331 329 329 329 331 332 333 332 329 328 339 341 339
330 332 334 337 337 339 339 338 342 342 339 339 339 339 339 337 332 334 334 334 333 334 334 332 331 331 330 327 328 330 333 330 327 328 332 332 333 332 329 334 337 340 339
328 332 333 336 339 340 339 338 339 341 340 338 338 340 339 336 335 336 334 333 333 333 333 331 330 329 329 329 328 329 332 332 331 327 332 330 331 330 328 334 335 340 341
327 328 333 336 340 342 341 338 339 339 338 337 335 335 335 334 334 335 334 335 333 333 332 331 330 330 328 328 328 327 332 332 332 331 332 331 331 329 326 331 334 340 341
329 331 333 336 340 343 344 343 340 340 336 334 333 333 334 335 335 335 335 334 333 333 333 332 329 329 329 327 328 328 329 330 330 331 330 331 330 327 327 328 329 340 341
332 333 335 336 341 344 345 344 342 338 335 333 333 332 334 336 336 336 334 334 334 333 334 333 332 331 329 328 328 328 330 330 329 330 330 330 332 330 328 327 324 339 341
333 333 336 335 341 344 345 344 340 335 335 332 332 333 336 337 337 335 335 334 334 334 334 333 331 331 330 328 329 330 331 331 331 332 331 329 329 334 331 322 324 335 339
333 335 337 337 339 343 345 343 338 335 334 333 332 333 334 336 336 335 335 334 334 334 333 332 330 332 329 329 331 330 331 331 331 331 330 329 329 332 332 333 334 334 338
334 336 338 338 337 342 342 339 336 335 335 332 332 333 335 336 335 336 336 335 334 334 333 330 330 331 330 330 330 330 331 330 330 329 328 329 330 333 332 337 339 337 337
336 337 337 336 338 341 339 336 334 334 334 332 333 334 336 336 335 335 336 334 334 333 332 331 331 330 330 331 331 331 331 331 328 329 331 330 332 334 333 338 340 338 338
337 337 336 336 338 339 337 335 333 333 332 334 334 335 336 335 334 336 334 334 334 333 331 330 330 331 330 331 330 330 333 329 328 329 332 332 333 333 336 338 341 342 340
337 337 337 338 339 337 335 334 336 336 336 334 333 334 335 335 335 334 334 334 333 332 329 329 330 330 330 330 331 331 334 331 327 330 332 332 334 335 337 339 341 339 338
337 337 338 339 338 336 336 335 335 333 332 332 333 331 334 333 333 333 333 333 331 329 330 331 330 331 330 331 330 330 330 330 329 332 333 333 333 336 338 338 338 338 332
337 337 338 338 337 337 336 335 336 333 330 332 332 334 335 335 335 333 332 332 332 331 331 332 331 330 330 331 331 330 331 330 327 330 334 333 334 336 338 339 337 337 336
336 337 338 337 337 337 335 336 336 334 334 333 334 334 336 336 336 333 330 331 331 332 332 330 330 330 332 332 331 330 330 333 330 334 337 336 336 334 336 335 334 328 330

GFSSE_925_thetae_036.txt.gz
Theta_e
344 326 317 317 315 312 311 312 314 314 314 313 313 313 313 313 318 323 323 321 320 322 327 328 326 325 325 328 329 330 323 329 337 342 344 344 343 342 343 344 340 348 339
344 325 317 317 316 313 312 313 315 316 316 315 315 314 314 314 315 319 326 329 329 329 329 330 331 331 331 331 330 332 332 327 326 335 342 344 344 343 342 344 343 348 343
344 330 318 318 317 314 313 314 316 317 317 316 316 316 316 316 317 321 323 325 330 331 331 331 331 333 333 334 333 331 333 334 329 322 329 341 347 346 342 342 342 346 347
343 335 321 318 317 316 314 314 317 317 317 317 317 318 319 320 320 321 322 326 329 333 333 332 332 332 333 335 335 334 332 334 337 334 321 325 337 345 346 341 341 343 347
345 339 329 319 318 317 315 314 317 318 318 318 319 319 321 322 325 327 329 333 335 336 336 335 335 334 333 334 337 336 336 332 333 335 332 322 322 326 342 343 341 341 345
341 345 337 322 319 318 318 314 317 318 319 319 320 321 322 323 327 330 332 335 336 337 337 337 336 335 334 334 337 336 334 337 335 332 333 328 323 332 343 342 343 341 343
335 342 340 335 320 319 319 316 316 319 319 320 321 322 323 324 326 329 333 338 339 339 337 337 337 336 334 334 335 335 335 335 336 335 331 333 326 329 330 338 340 342 343
335 336 340 334 329 321 320 319 316 318 320 320 322 323 324 326 329 333 335 339 337 339 337 337 336 336 334 334 335 334 335 335 333 335 334 332 334 330 329 336 339 341 341
335 335 338 336 334 326 321 321 319 317 319 320 322 324 325 327 328 329 329 335 335 336 335 332 330 332 334 334 335 334 332 335 334 332 334 335 334 332 329 327 327 338 341
337 336 336 338 336 336 326 323 324 320 319 320 322 324 325 327 328 325 324 329 329 328 329 328 328 326 329 333 332 332 334 333 335 333 332 332 335 333 330 330 324 335 340
333 336 338 340 343 341 342 339 330 325 322 322 323 325 326 329 333 335 337 338 336 332 332 331 328 325 322 323 329 332 331 333 331 332 331 330 333 333 332 331 325 333 341
330 330 337 338 342 345 343 341 340 332 330 328 330 330 332 335 338 338 335 338 336 333 331 329 328 327 324 327 327 328 331 331 331 330 332 332 333 333 333 330 324 328 341
330 329 330 337 338 343 342 340 341 342 340 338 335 337 339 340 342 337 334 334 333 332 331 333 334 329 331 331 328 329 332 333 331 329 330 332 332 332 332 331 324 334 340
328 329 327 338 337 339 342 341 344 345 343 340 339 339 340 341 339 334 334 335 335 334 335 333 332 332 331 331 329 329 330 331 333 330 331 332 331 331 332 330 328 333 339
329 329 328 340 336 338 340 341 343 345 344 342 342 341 341 340 337 336 337 336 336 335 334 334 332 331 330 329 328 328 329 330 330 333 333 332 331 331 331 330 331 333 339
329 328 331 342 337 338 339 341 341 341 343 342 340 339 338 337 335 335 337 335 335 334 334 333 332 332 331 329 329 328 329 330 331 332 332 331 330 330 330 326 331 334 340
329 330 336 338 339 342 344 340 346 342 341 339 336 335 335 334 335 337 337 336 335 333 333 332 332 331 331 328 330 329 327 329 327 329 329 332 330 330 330 325 327 327 339
328 332 336 336 343 345 347 344 342 343 341 337 334 334 333 335 337 338 337 335 334 335 334 333 332 333 331 331 328 327 329 329 330 330 331 329 329 331 331 329 327 322 337
330 332 336 337 348 348 348 348 345 343 339 335 335 333 335 336 337 337 335 335 336 335 332 332 331 331 329 331 329 329 330 332 331 331 332 330 331 331 334 333 326 322 333
336 336 339 339 346 347 348 347 346 340 338 336 334 334 334 336 337 335 335 336 336 334 332 332 331 329 330 329 330 330 330 330 330 331 331 331 328 328 333 334 330 332 332
337 340 342 341 340 347 348 346 343 340 337 335 334 334 335 336 336 334 336 336 334 334 332 332 331 329 331 330 329 329 330 330 329 330 330 329 328 332 330 334 334 335 335
338 340 341 340 341 345 345 343 339 337 337 335 334 335 335 336 335 335 336 336 334 333 331 331 331 330 330 330 330 330 332 331 329 329 330 331 330 332 332 333 334 336 338
340 340 340 341 345 343 341 339 338 335 337 336 336 335 336 336 335 336 336 334 333 332 330 330 330 330 332 330 328 329 331 331 329 329 329 327 329 332 333 335 336 338 338
340 340 340 342 343 340 339 338 337 337 336 334 333 335 337 336 335 333 333 333 332 331 330 329 330 330 330 330 330 328 329 328 329 331 331 330 331 332 334 336 337 339 338
340 340 341 342 341 340 336 337 338 337 335 333 332 334 334 335 335 335 334 333 332 330 331 330 332 329 330 330 330 329 329 329 326 328 332 333 331 331 337 335 334 338 337
340 341 342 341 341 339 336 339 336 335 335 335 334 336 335 337 336 334 333 332 332 332 331 332 331 330 330 330 331 330 330 330 330 328 329 331 332 333 334 337 335 334 335